Time,TemperatureF,DewpointF,PressureIn,WindDirection,WindDirectionDegrees,WindSpeedMPH,WindSpeedGustMPH,Humidity,HourlyPrecipIn,Conditions,Clouds,dailyrainin,SoftwareType,DateUTC
2013-01-02 00:03:00,36.0,28.9,29.97,ESE,112,0.0,0.0,75,0.00,,---,0.00,VWS V13.01,2013-01-02 08:03:00,
2013-01-02 00:08:00,35.0,27.9,29.97,ESE,112,0.0,0.0,75,0.00,,---,0.00,VWS V13.01,2013-01-02 08:08:00,
2013-01-02 00:13:00,35.0,27.9,29.98,ESE,112,0.0,0.0,75,0.00,,---,0.00,VWS V13.01,2013-01-02 08:13:00,
2013-01-02 00:18:00,35.0,27.9,29.98,ESE,112,0.0,0.0,75,0.00,,---,0.00,VWS V13.01,2013-01-02 08:18:00,
2013-01-02 00:23:00,35.0,27.9,29.96,ESE,112,0.0,0.0,75,0.00,,---,0.00,VWS V13.01,2013-01-02 08:23:00,
2013-01-02 00:28:00,35.0,27.9,29.96,ESE,112,0.0,0.0,75,0.00,,---,0.00,VWS V13.01,2013-01-02 08:28:00,
2013-01-02 00:33:00,35.0,27.9,29.97,ESE,112,0.0,0.0,75,0.00,,---,0.00,VWS V13.01,2013-01-02 08:33:00,
2013-01-02 00:38:00,35.0,27.9,29.97,ESE,112,0.0,0.0,75,0.00,,---,0.00,VWS V13.01,2013-01-02 08:38:00,
2013-01-02 00:43:00,36.0,28.9,29.96,ESE,112,0.0,0.0,75,0.00,,---,0.00,VWS V13.01,2013-01-02 08:43:00,
2013-01-02 00:48:00,36.0,28.9,29.96,South,180,0.0,0.0,75,0.00,,---,0.00,VWS V13.01,2013-01-02 08:48:00,
2013-01-02 00:53:00,36.0,28.9,29.97,South,180,0.0,0.0,75,0.00,,---,0.00,VWS V13.01,2013-01-02 08:53:00,
2013-01-02 00:58:00,36.0,28.9,29.97,South,180,0.0,0.0,75,0.00,,---,0.00,VWS V13.01,2013-01-02 08:58:00,
2013-01-02 01:03:00,36.0,28.9,29.97,South,180,0.0,0.0,75,0.00,,---,0.00,VWS V13.01,2013-01-02 09:03:00,
2013-01-02 01:08:00,36.0,28.9,29.97,South,180,0.0,0.0,75,0.00,,---,0.00,VWS V13.01,2013-01-02 09:08:00,
2013-01-02 01:13:00,36.0,28.9,29.95,South,180,0.0,0.0,75,0.00,,---,0.00,VWS V13.01,2013-01-02 09:13:00,
2013-01-02 01:18:00,35.0,27.9,29.95,South,180,0.0,0.0,75,0.00,,---,0.00,VWS V13.01,2013-01-02 09:18:00,
2013-01-02 01:23:00,35.0,27.9,29.97,South,180,0.0,0.0,75,0.00,,---,0.00,VWS V13.01,2013-01-02 09:23:00,
2013-01-02 01:28:00,35.0,27.9,29.97,South,180,0.0,0.0,75,0.00,,---,0.00,VWS V13.01,2013-01-02 09:28:00,
2013-01-02 01:33:00,35.0,27.9,29.96,South,180,0.0,0.0,75,0.00,,---,0.00,VWS V13.01,2013-01-02 09:33:00,
2013-01-02 01:38:00,34.0,26.9,29.96,South,180,0.0,0.0,75,0.00,,---,0.00,VWS V13.01,2013-01-02 09:38:00,
2013-01-02 01:43:00,34.0,26.9,29.95,South,180,0.0,0.0,75,0.00,,---,0.00,VWS V13.01,2013-01-02 09:43:00,
2013-01-02 01:48:00,35.0,27.9,29.95,South,180,0.0,0.0,75,0.00,,---,0.00,VWS V13.01,2013-01-02 09:48:00,
2013-01-02 01:53:00,35.0,27.9,29.96,South,180,0.0,0.0,75,0.00,,---,0.00,VWS V13.01,2013-01-02 09:53:00,
2013-01-02 01:58:00,35.0,27.9,29.96,South,180,0.0,0.0,75,0.00,,---,0.00,VWS V13.01,2013-01-02 09:58:00,
2013-01-02 02:03:00,35.0,27.9,29.96,South,180,0.0,0.0,75,0.00,,---,0.00,VWS V13.01,2013-01-02 10:03:00,
2013-01-02 02:08:00,35.0,27.9,29.96,South,180,0.0,0.0,75,0.00,,---,0.00,VWS V13.01,2013-01-02 10:08:00,
2013-01-02 02:13:00,35.0,27.9,29.96,South,180,0.0,0.0,75,0.00,,---,0.00,VWS V13.01,2013-01-02 10:13:00,
2013-01-02 02:18:00,35.0,27.9,29.96,South,180,0.0,0.0,75,0.00,,---,0.00,VWS V13.01,2013-01-02 10:18:00,
2013-01-02 02:23:00,35.0,27.9,29.97,South,180,0.0,0.0,75,0.00,,---,0.00,VWS V13.01,2013-01-02 10:23:00,
2013-01-02 02:28:00,36.0,28.9,29.97,ESE,112,0.0,0.0,75,0.00,,---,0.00,VWS V13.01,2013-01-02 10:28:00,
2013-01-02 02:33:00,37.0,29.8,29.95,SE,135,0.0,0.0,75,0.00,,---,0.00,VWS V13.01,2013-01-02 10:33:00,
2013-01-02 02:38:00,37.0,29.8,29.95,SE,135,0.0,0.0,75,0.00,,---,0.00,VWS V13.01,2013-01-02 10:38:00,
2013-01-02 02:43:00,37.0,29.8,29.95,SE,135,0.0,0.0,75,0.00,,---,0.00,VWS V13.01,2013-01-02 10:43:00,
2013-01-02 02:48:00,36.0,28.9,29.95,SE,135,0.0,0.0,75,0.00,,---,0.00,VWS V13.01,2013-01-02 10:48:00,
2013-01-02 02:53:00,35.0,27.9,29.96,SE,135,0.0,0.0,75,0.00,,---,0.00,VWS V13.01,2013-01-02 10:53:00,
2013-01-02 02:58:00,35.0,27.9,29.96,SE,135,0.0,0.0,75,0.00,,---,0.00,VWS V13.01,2013-01-02 10:58:00,
2013-01-02 03:03:00,35.0,27.9,29.96,SE,135,0.0,0.0,75,0.00,,---,0.00,VWS V13.01,2013-01-02 11:03:00,
2013-01-02 03:08:00,35.0,27.9,29.96,SE,135,0.0,0.0,75,0.00,,---,0.00,VWS V13.01,2013-01-02 11:08:00,
2013-01-02 03:13:00,35.0,27.9,29.96,SE,135,0.0,0.0,75,0.00,,---,0.00,VWS V13.01,2013-01-02 11:13:00,
2013-01-02 03:18:00,35.0,27.9,29.96,SE,135,0.0,1.0,75,0.00,,---,0.00,VWS V13.01,2013-01-02 11:18:00,
2013-01-02 03:23:00,36.0,28.9,29.95,SE,135,0.0,0.0,75,0.00,,---,0.00,VWS V13.01,2013-01-02 11:23:00,
2013-01-02 03:28:00,36.0,28.9,29.95,ESE,112,0.0,1.0,75,0.00,,---,0.00,VWS V13.01,2013-01-02 11:28:00,
2013-01-02 03:33:00,37.0,29.8,29.94,ESE,112,0.0,0.0,75,0.00,,---,0.00,VWS V13.01,2013-01-02 11:33:00,
2013-01-02 03:37:00,37.0,29.8,29.94,ESE,112,2.0,2.0,75,0.00,,---,0.00,VWS V13.01,2013-01-02 11:37:00,
2013-01-02 03:42:00,37.0,29.8,29.94,ESE,112,0.0,3.0,75,0.00,,---,0.00,VWS V13.01,2013-01-02 11:42:00,
2013-01-02 03:47:00,37.0,29.8,29.94,ESE,112,0.0,0.0,75,0.00,,---,0.00,VWS V13.01,2013-01-02 11:47:00,
2013-01-02 03:52:00,37.0,29.8,29.94,SE,135,4.0,4.0,75,0.00,,---,0.00,VWS V13.01,2013-01-02 11:52:00,
2013-01-02 03:57:00,38.0,30.5,29.94,ESE,112,0.0,2.0,74,0.00,,---,0.00,VWS V13.01,2013-01-02 11:57:00,
2013-01-02 04:02:00,38.0,30.5,29.94,ESE,112,0.0,0.0,74,0.00,,---,0.00,VWS V13.01,2013-01-02 12:02:00,
2013-01-02 04:07:00,38.0,30.5,29.94,SE,135,0.0,0.0,74,0.00,,---,0.00,VWS V13.01,2013-01-02 12:07:00,
2013-01-02 04:12:00,37.0,29.8,29.95,ESE,112,0.0,0.0,75,0.00,,---,0.00,VWS V13.01,2013-01-02 12:12:00,
2013-01-02 04:17:00,37.0,29.8,29.95,ESE,112,0.0,5.0,75,0.00,,---,0.00,VWS V13.01,2013-01-02 12:17:00,
2013-01-02 04:22:00,37.0,29.8,29.92,ESE,112,4.0,6.0,75,0.00,,---,0.00,VWS V13.01,2013-01-02 12:22:00,
2013-01-02 04:27:00,36.0,28.9,29.92,ESE,112,2.0,3.0,75,0.00,,---,0.00,VWS V13.01,2013-01-02 12:27:00,
2013-01-02 04:32:00,37.0,29.8,29.94,ESE,112,0.0,3.0,75,0.00,,---,0.00,VWS V13.01,2013-01-02 12:32:00,
2013-01-02 04:37:00,36.0,28.9,29.94,ESE,112,1.0,2.0,75,0.00,,---,0.00,VWS V13.01,2013-01-02 12:37:00,
2013-01-02 04:42:00,36.0,28.9,29.91,SE,135,0.0,0.0,75,0.00,,---,0.00,VWS V13.01,2013-01-02 12:42:00,
2013-01-02 04:47:00,36.0,28.9,29.91,ESE,112,1.0,4.0,75,0.00,,---,0.00,VWS V13.01,2013-01-02 12:47:00,
2013-01-02 04:52:00,36.0,28.9,29.93,ESE,112,2.0,2.0,75,0.00,,---,0.00,VWS V13.01,2013-01-02 12:52:00,
2013-01-02 04:57:00,36.0,28.9,29.93,ESE,112,0.0,1.0,75,0.00,,---,0.00,VWS V13.01,2013-01-02 12:57:00,
2013-01-02 05:02:00,36.0,28.9,29.92,ESE,112,0.0,0.0,75,0.00,,---,0.00,VWS V13.01,2013-01-02 13:02:00,
2013-01-02 05:07:00,36.0,28.9,29.92,ESE,112,0.0,0.0,75,0.00,,---,0.00,VWS V13.01,2013-01-02 13:07:00,
2013-01-02 05:12:00,36.0,28.9,29.92,ESE,112,0.0,0.0,75,0.00,,---,0.00,VWS V13.01,2013-01-02 13:12:00,
2013-01-02 05:17:00,35.0,27.9,29.92,ESE,112,0.0,1.0,75,0.00,,---,0.00,VWS V13.01,2013-01-02 13:17:00,
2013-01-02 05:22:00,35.0,27.9,29.93,SE,135,0.0,0.0,75,0.00,,---,0.00,VWS V13.01,2013-01-02 13:22:00,
2013-01-02 05:27:00,35.0,27.9,29.93,SE,135,0.0,0.0,75,0.00,,---,0.00,VWS V13.01,2013-01-02 13:27:00,
2013-01-02 05:32:00,35.0,27.9,29.91,ESE,112,0.0,4.0,75,0.00,,---,0.00,VWS V13.01,2013-01-02 13:32:00,
2013-01-02 05:37:00,35.0,27.9,29.91,ESE,112,0.0,0.0,75,0.00,,---,0.00,VWS V13.01,2013-01-02 13:37:00,
2013-01-02 05:42:00,35.0,27.9,29.92,ESE,112,1.0,2.0,75,0.00,,---,0.00,VWS V13.01,2013-01-02 13:42:00,
2013-01-02 05:47:00,35.0,27.9,29.92,SE,135,1.0,2.0,75,0.00,,---,0.00,VWS V13.01,2013-01-02 13:47:00,
2013-01-02 05:52:00,35.0,27.9,29.92,ESE,112,0.0,3.0,75,0.00,,---,0.00,VWS V13.01,2013-01-02 13:52:00,
2013-01-02 05:57:00,35.0,27.9,29.92,SE,135,0.0,2.0,75,0.00,,---,0.00,VWS V13.01,2013-01-02 13:57:00,
2013-01-02 06:02:00,36.0,28.9,29.91,SSE,157,0.0,0.0,75,0.00,,---,0.00,VWS V13.01,2013-01-02 14:02:00,
2013-01-02 06:07:00,35.0,27.9,29.91,SE,135,0.0,0.0,75,0.00,,---,0.00,VWS V13.01,2013-01-02 14:07:00,
2013-01-02 06:12:00,35.0,27.9,29.92,SE,135,1.0,1.0,75,0.00,,---,0.00,VWS V13.01,2013-01-02 14:12:00,
2013-01-02 06:17:00,35.0,27.9,29.92,ESE,112,0.0,1.0,75,0.00,,---,0.00,VWS V13.01,2013-01-02 14:17:00,
2013-01-02 06:22:00,35.0,27.9,29.92,ESE,112,0.0,2.0,75,0.00,,---,0.00,VWS V13.01,2013-01-02 14:22:00,
2013-01-02 06:27:00,35.0,27.9,29.92,ESE,112,0.0,1.0,75,0.00,,---,0.00,VWS V13.01,2013-01-02 14:27:00,
2013-01-02 06:32:00,35.0,27.9,29.91,ESE,112,0.0,0.0,75,0.00,,---,0.00,VWS V13.01,2013-01-02 14:32:00,
2013-01-02 06:37:00,34.0,26.9,29.91,ESE,112,0.0,0.0,75,0.00,,---,0.00,VWS V13.01,2013-01-02 14:37:00,
2013-01-02 06:42:00,34.0,26.9,29.94,ESE,112,0.0,0.0,75,0.00,,---,0.00,VWS V13.01,2013-01-02 14:42:00,
2013-01-02 06:47:00,33.0,26.0,29.94,ESE,112,0.0,0.0,75,0.00,,---,0.00,VWS V13.01,2013-01-02 14:47:00,
2013-01-02 06:52:00,32.0,25.3,29.94,ESE,112,0.0,0.0,76,0.00,,---,0.00,VWS V13.01,2013-01-02 14:52:00,
2013-01-02 06:57:00,31.0,24.3,29.94,ESE,112,0.0,0.0,76,0.00,,---,0.00,VWS V13.01,2013-01-02 14:57:00,
2013-01-02 07:02:00,31.0,24.3,29.94,ESE,112,0.0,0.0,76,0.00,,---,0.00,VWS V13.01,2013-01-02 15:02:00,
2013-01-02 07:07:00,31.0,24.3,29.94,ESE,112,0.0,0.0,76,0.00,,---,0.00,VWS V13.01,2013-01-02 15:07:00,
2013-01-02 07:12:00,32.0,25.3,29.95,ESE,112,0.0,0.0,76,0.00,,---,0.00,VWS V13.01,2013-01-02 15:12:00,
2013-01-02 07:17:00,31.0,24.3,29.95,West,270,0.0,0.0,76,0.00,,---,0.00,VWS V13.01,2013-01-02 15:17:00,
2013-01-02 07:22:00,32.0,25.3,29.93,West,270,0.0,0.0,76,0.00,,---,0.00,VWS V13.01,2013-01-02 15:22:00,
2013-01-02 07:27:00,32.0,25.3,29.93,West,270,0.0,0.0,76,0.00,,---,0.00,VWS V13.01,2013-01-02 15:27:00,
2013-01-02 07:32:00,33.0,26.0,29.94,West,270,0.0,0.0,75,0.00,,---,0.00,VWS V13.01,2013-01-02 15:32:00,
2013-01-02 07:37:00,33.0,26.0,29.94,West,270,0.0,0.0,75,0.00,,---,0.00,VWS V13.01,2013-01-02 15:37:00,
2013-01-02 07:42:00,33.0,26.0,29.94,West,270,0.0,0.0,75,0.00,,---,0.00,VWS V13.01,2013-01-02 15:42:00,
2013-01-02 07:47:00,33.0,26.0,29.94,West,270,0.0,0.0,75,0.00,,---,0.00,VWS V13.01,2013-01-02 15:47:00,
2013-01-02 07:52:00,34.0,26.9,29.94,West,270,0.0,0.0,75,0.00,,---,0.00,VWS V13.01,2013-01-02 15:52:00,
2013-01-02 07:57:00,33.0,26.0,29.94,West,270,0.0,0.0,75,0.00,,---,0.00,VWS V13.01,2013-01-02 15:57:00,
2013-01-02 08:02:00,34.0,26.9,29.95,West,270,0.0,0.0,75,0.00,,---,0.00,VWS V13.01,2013-01-02 16:02:00,
2013-01-02 08:07:00,33.0,26.0,29.95,West,270,0.0,0.0,75,0.00,,---,0.00,VWS V13.01,2013-01-02 16:07:00,
2013-01-02 08:12:00,34.0,26.9,29.96,West,270,0.0,0.0,75,0.00,,---,0.00,VWS V13.01,2013-01-02 16:12:00,
2013-01-02 08:17:00,33.0,26.0,29.96,West,270,0.0,0.0,75,0.00,,---,0.00,VWS V13.01,2013-01-02 16:17:00,
2013-01-02 08:22:00,34.0,26.9,29.96,SSE,157,0.0,0.0,75,0.00,,---,0.00,VWS V13.01,2013-01-02 16:22:00,
2013-01-02 08:27:00,34.0,26.9,29.96,SE,135,0.0,0.0,75,0.00,,---,0.00,VWS V13.01,2013-01-02 16:27:00,
2013-01-02 08:32:00,34.0,26.9,29.96,SE,135,0.0,0.0,75,0.00,,---,0.00,VWS V13.01,2013-01-02 16:32:00,
2013-01-02 08:37:00,35.0,27.9,29.96,SE,135,0.0,0.0,75,0.00,,---,0.00,VWS V13.01,2013-01-02 16:37:00,
2013-01-02 08:42:00,36.0,28.9,29.95,East,90,0.0,0.0,75,0.00,,---,0.00,VWS V13.01,2013-01-02 16:42:00,
2013-01-02 08:47:00,36.0,28.9,29.95,SE,135,0.0,0.0,75,0.00,,---,0.00,VWS V13.01,2013-01-02 16:47:00,
2013-01-02 08:52:00,37.0,29.8,29.94,SE,135,0.0,0.0,75,0.00,,---,0.00,VWS V13.01,2013-01-02 16:52:00,
2013-01-02 08:57:00,37.0,29.8,29.94,ESE,112,0.0,0.0,75,0.00,,---,0.00,VWS V13.01,2013-01-02 16:57:00,
2013-01-02 09:02:00,38.0,30.5,29.94,ESE,112,0.0,1.0,74,0.00,,---,0.00,VWS V13.01,2013-01-02 17:02:00,
2013-01-02 09:07:00,38.0,30.5,29.94,ESE,112,1.0,1.0,74,0.00,,---,0.00,VWS V13.01,2013-01-02 17:07:00,
2013-01-02 09:12:00,39.0,31.4,29.95,ESE,112,2.0,2.0,74,0.00,,---,0.00,VWS V13.01,2013-01-02 17:12:00,
2013-01-02 09:17:00,39.0,31.4,29.95,ESE,112,3.0,3.0,74,0.00,,---,0.00,VWS V13.01,2013-01-02 17:17:00,
2013-01-02 09:22:00,40.0,32.4,29.94,ESE,112,2.0,3.0,74,0.00,,---,0.00,VWS V13.01,2013-01-02 17:22:00,
2013-01-02 09:27:00,41.0,33.4,29.94,ESE,112,1.0,3.0,74,0.00,,---,0.00,VWS V13.01,2013-01-02 17:27:00,
2013-01-02 09:32:00,42.0,34.3,29.93,ESE,112,0.0,0.0,74,0.00,,---,0.00,VWS V13.01,2013-01-02 17:32:00,
2013-01-02 09:37:00,43.0,35.6,29.93,ESE,112,0.0,0.0,75,0.00,,---,0.00,VWS V13.01,2013-01-02 17:37:00,
2013-01-02 09:42:00,44.0,36.6,29.93,ESE,112,0.0,0.0,75,0.00,,---,0.00,VWS V13.01,2013-01-02 17:42:00,
2013-01-02 09:47:00,44.0,36.6,29.93,SE,135,0.0,0.0,75,0.00,,---,0.00,VWS V13.01,2013-01-02 17:47:00,
2013-01-02 09:52:00,46.0,38.5,29.94,SE,135,0.0,0.0,75,0.00,,---,0.00,VWS V13.01,2013-01-02 17:52:00,
2013-01-02 09:57:00,46.0,38.5,29.94,ESE,112,0.0,0.0,75,0.00,,---,0.00,VWS V13.01,2013-01-02 17:57:00,
2013-01-02 10:02:00,47.0,39.5,29.92,SE,135,0.0,0.0,75,0.00,,---,0.00,VWS V13.01,2013-01-02 18:02:00,
2013-01-02 10:07:00,47.0,39.5,29.92,SE,135,0.0,0.0,75,0.00,,---,0.00,VWS V13.01,2013-01-02 18:07:00,
2013-01-02 10:12:00,48.0,40.8,29.93,SE,135,0.0,0.0,76,0.00,,---,0.00,VWS V13.01,2013-01-02 18:12:00,
2013-01-02 10:17:00,48.0,41.2,29.93,SE,135,0.0,0.0,77,0.00,,---,0.00,VWS V13.01,2013-01-02 18:17:00,
2013-01-02 10:22:00,50.0,42.7,29.92,SE,135,0.0,0.0,76,0.00,,---,0.00,VWS V13.01,2013-01-02 18:22:00,
2013-01-02 10:27:00,50.0,43.1,29.92,SSE,157,0.0,1.0,77,0.00,,---,0.00,VWS V13.01,2013-01-02 18:27:00,
2013-01-02 10:32:00,50.0,42.7,29.92,ESE,112,0.0,0.0,76,0.00,,---,0.00,VWS V13.01,2013-01-02 18:32:00,
2013-01-02 10:37:00,51.0,44.0,29.92,ESE,112,0.0,0.0,77,0.00,,---,0.00,VWS V13.01,2013-01-02 18:37:00,
2013-01-02 10:42:00,52.0,44.7,29.92,ESE,112,0.0,1.0,76,0.00,,---,0.00,VWS V13.01,2013-01-02 18:42:00,
2013-01-02 10:47:00,53.0,46.0,29.92,ESE,112,0.0,0.0,77,0.00,,---,0.00,VWS V13.01,2013-01-02 18:47:00,
2013-01-02 10:52:00,54.0,47.0,29.90,ESE,112,0.0,0.0,77,0.00,,---,0.00,VWS V13.01,2013-01-02 18:52:00,
2013-01-02 10:57:00,54.0,47.3,29.90,West,270,0.0,0.0,78,0.00,,---,0.00,VWS V13.01,2013-01-02 18:57:00,
2013-01-02 11:02:00,53.0,45.7,29.90,WNW,292,0.0,0.0,76,0.00,,---,0.00,VWS V13.01,2013-01-02 19:02:00,
2013-01-02 11:07:00,52.0,45.0,29.90,WNW,292,0.0,1.0,77,0.00,,---,0.00,VWS V13.01,2013-01-02 19:07:00,
2013-01-02 11:12:00,53.0,45.7,29.90,WNW,292,0.0,0.0,76,0.00,,---,0.00,VWS V13.01,2013-01-02 19:12:00,
2013-01-02 11:17:00,53.0,46.0,29.90,West,270,0.0,1.0,77,0.00,,---,0.00,VWS V13.01,2013-01-02 19:17:00,
2013-01-02 11:22:00,54.0,47.0,29.89,West,270,0.0,0.0,77,0.00,,---,0.00,VWS V13.01,2013-01-02 19:22:00,
2013-01-02 11:27:00,53.0,46.0,29.89,West,270,0.0,0.0,77,0.00,,---,0.00,VWS V13.01,2013-01-02 19:27:00,
2013-01-02 11:32:00,53.0,45.7,29.90,NW,315,0.0,0.0,76,0.00,,---,0.00,VWS V13.01,2013-01-02 19:32:00,
2013-01-02 11:37:00,54.0,47.3,29.90,NW,315,0.0,0.0,78,0.00,,---,0.00,VWS V13.01,2013-01-02 19:37:00,
2013-01-02 11:42:00,54.0,47.0,29.90,WNW,292,0.0,0.0,77,0.00,,---,0.00,VWS V13.01,2013-01-02 19:42:00,
2013-01-02 11:47:00,53.0,46.0,29.90,WNW,292,0.0,1.0,77,0.00,,---,0.00,VWS V13.01,2013-01-02 19:47:00,
2013-01-02 11:52:00,54.0,47.0,29.90,WNW,292,0.0,4.0,77,0.00,,---,0.00,VWS V13.01,2013-01-02 19:52:00,
2013-01-02 11:57:00,53.0,46.0,29.90,West,270,0.0,3.0,77,0.00,,---,0.00,VWS V13.01,2013-01-02 19:57:00,
2013-01-02 12:02:00,53.0,45.7,29.89,WNW,292,1.0,2.0,76,0.00,,---,0.00,VWS V13.01,2013-01-02 20:02:00,
2013-01-02 12:07:00,53.0,46.0,29.89,SSW,202,0.0,0.0,77,0.00,,---,0.00,VWS V13.01,2013-01-02 20:07:00,
2013-01-02 12:12:00,55.0,47.9,29.88,WNW,292,1.0,1.0,77,0.00,,---,0.00,VWS V13.01,2013-01-02 20:12:00,
2013-01-02 12:17:00,53.0,46.0,29.88,WNW,292,0.0,2.0,77,0.00,,---,0.00,VWS V13.01,2013-01-02 20:17:00,
2013-01-02 12:22:00,53.0,45.7,29.89,West,270,0.0,1.0,76,0.00,,---,0.00,VWS V13.01,2013-01-02 20:22:00,
2013-01-02 12:27:00,53.0,46.0,29.89,WNW,292,0.0,4.0,77,0.00,,---,0.00,VWS V13.01,2013-01-02 20:27:00,
2013-01-02 12:32:00,53.0,45.7,29.89,WNW,292,0.0,0.0,76,0.00,,---,0.00,VWS V13.01,2013-01-02 20:32:00,
2013-01-02 12:37:00,53.0,46.0,29.89,WSW,247,0.0,2.0,77,0.00,,---,0.00,VWS V13.01,2013-01-02 20:37:00,
2013-01-02 12:42:00,54.0,47.0,29.87,WNW,292,2.0,5.0,77,0.00,,---,0.00,VWS V13.01,2013-01-02 20:42:00,
2013-01-02 12:47:00,53.0,46.0,29.87,NW,315,0.0,0.0,77,0.00,,---,0.00,VWS V13.01,2013-01-02 20:47:00,
2013-01-02 12:52:00,54.0,47.0,29.87,North,360,0.0,0.0,77,0.00,,---,0.00,VWS V13.01,2013-01-02 20:52:00,
2013-01-02 12:57:00,53.0,46.0,29.87,West,270,1.0,2.0,77,0.00,,---,0.00,VWS V13.01,2013-01-02 20:57:00,
2013-01-02 13:02:00,54.0,47.0,29.86,WNW,292,0.0,0.0,77,0.00,,---,0.00,VWS V13.01,2013-01-02 21:02:00,
2013-01-02 13:07:00,54.0,47.3,29.86,WNW,292,0.0,3.0,78,0.00,,---,0.00,VWS V13.01,2013-01-02 21:07:00,
2013-01-02 13:12:00,53.0,45.7,29.87,WNW,292,0.0,5.0,76,0.00,,---,0.00,VWS V13.01,2013-01-02 21:12:00,
2013-01-02 13:17:00,54.0,47.3,29.87,WNW,292,0.0,0.0,78,0.00,,---,0.00,VWS V13.01,2013-01-02 21:17:00,
2013-01-02 13:22:00,55.0,47.9,29.86,WNW,292,0.0,0.0,77,0.00,,---,0.00,VWS V13.01,2013-01-02 21:22:00,
2013-01-02 13:27:00,55.0,48.3,29.86,NW,315,0.0,0.0,78,0.00,,---,0.00,VWS V13.01,2013-01-02 21:27:00,
2013-01-02 13:32:00,55.0,47.9,29.86,West,270,0.0,0.0,77,0.00,,---,0.00,VWS V13.01,2013-01-02 21:32:00,
2013-01-02 13:37:00,54.0,47.3,29.86,West,270,0.0,0.0,78,0.00,,---,0.00,VWS V13.01,2013-01-02 21:37:00,
2013-01-02 13:42:00,55.0,48.3,29.86,NW,315,0.0,0.0,78,0.00,,---,0.00,VWS V13.01,2013-01-02 21:42:00,
2013-01-02 13:47:00,54.0,47.3,29.85,WNW,292,0.0,3.0,78,0.00,,---,0.00,VWS V13.01,2013-01-02 21:47:00,
2013-01-02 13:52:00,54.0,47.0,29.86,WNW,292,0.0,2.0,77,0.00,,---,0.00,VWS V13.01,2013-01-02 21:52:00,
2013-01-02 13:57:00,53.0,46.0,29.86,West,270,2.0,4.0,77,0.00,,---,0.00,VWS V13.01,2013-01-02 21:57:00,
2013-01-02 14:02:00,54.0,47.0,29.85,WNW,292,0.0,0.0,77,0.00,,---,0.00,VWS V13.01,2013-01-02 22:02:00,
2013-01-02 14:07:00,54.0,47.3,29.85,WNW,292,0.0,0.0,78,0.00,,---,0.00,VWS V13.01,2013-01-02 22:07:00,
2013-01-02 14:12:00,53.0,45.7,29.85,WNW,292,0.0,2.0,76,0.00,,---,0.00,VWS V13.01,2013-01-02 22:12:00,
2013-01-02 14:17:00,53.0,46.0,29.85,WNW,292,0.0,2.0,77,0.00,,---,0.00,VWS V13.01,2013-01-02 22:17:00,
2013-01-02 14:22:00,53.0,45.7,29.84,WNW,292,0.0,1.0,76,0.00,,---,0.00,VWS V13.01,2013-01-02 22:22:00,
2013-01-02 14:27:00,52.0,45.0,29.84,WNW,292,0.0,3.0,77,0.00,,---,0.00,VWS V13.01,2013-01-02 22:27:00,
2013-01-02 14:32:00,53.0,45.7,29.83,WNW,292,0.0,0.0,76,0.00,,---,0.00,VWS V13.01,2013-01-02 22:32:00,
2013-01-02 14:37:00,52.0,45.0,29.83,WNW,292,0.0,2.0,77,0.00,,---,0.00,VWS V13.01,2013-01-02 22:37:00,
2013-01-02 14:42:00,53.0,45.7,29.85,West,270,2.0,5.0,76,0.00,,---,0.00,VWS V13.01,2013-01-02 22:42:00,
2013-01-02 14:47:00,53.0,46.0,29.85,WSW,247,0.0,0.0,77,0.00,,---,0.00,VWS V13.01,2013-01-02 22:47:00,
2013-01-02 14:52:00,54.0,47.0,29.83,WNW,292,0.0,0.0,77,0.00,,---,0.00,VWS V13.01,2013-01-02 22:52:00,
2013-01-02 14:57:00,53.0,46.0,29.83,WNW,292,0.0,0.0,77,0.00,,---,0.00,VWS V13.01,2013-01-02 22:57:00,
2013-01-02 15:02:00,53.0,45.7,29.85,West,270,1.0,4.0,76,0.00,,---,0.00,VWS V13.01,2013-01-02 23:02:00,
2013-01-02 15:07:00,51.0,44.0,29.85,West,270,0.0,0.0,77,0.00,,---,0.00,VWS V13.01,2013-01-02 23:07:00,
2013-01-02 15:12:00,50.0,42.7,29.85,West,270,0.0,0.0,76,0.00,,---,0.00,VWS V13.01,2013-01-02 23:12:00,
2013-01-02 15:17:00,49.0,42.1,29.85,WNW,292,1.0,4.0,77,0.00,,---,0.00,VWS V13.01,2013-01-02 23:17:00,
2013-01-02 15:22:00,49.0,41.8,29.85,WNW,292,0.0,0.0,76,0.00,,---,0.00,VWS V13.01,2013-01-02 23:22:00,
2013-01-02 15:27:00,48.0,41.2,29.85,WNW,292,0.0,2.0,77,0.00,,---,0.00,VWS V13.01,2013-01-02 23:27:00,
2013-01-02 15:32:00,48.0,40.8,29.85,WNW,292,0.0,0.0,76,0.00,,---,0.00,VWS V13.01,2013-01-02 23:32:00,
2013-01-02 15:37:00,48.0,41.2,29.85,WNW,292,0.0,0.0,77,0.00,,---,0.00,VWS V13.01,2013-01-02 23:37:00,
2013-01-02 15:42:00,48.0,40.8,29.85,WNW,292,0.0,0.0,76,0.00,,---,0.00,VWS V13.01,2013-01-02 23:42:00,
2013-01-02 15:47:00,47.0,39.8,29.85,WNW,292,0.0,0.0,76,0.00,,---,0.00,VWS V13.01,2013-01-02 23:47:00,
2013-01-02 15:52:00,47.0,39.5,29.84,WNW,292,0.0,0.0,75,0.00,,---,0.00,VWS V13.01,2013-01-02 23:52:00,
2013-01-02 15:57:00,47.0,39.8,29.84,WNW,292,0.0,1.0,76,0.00,,---,0.00,VWS V13.01,2013-01-02 23:57:00,
2013-01-02 16:02:00,47.0,39.5,29.85,WNW,292,0.0,0.0,75,0.00,,---,0.00,VWS V13.01,2013-01-03 00:02:00,
2013-01-02 16:07:00,46.0,38.9,29.85,WNW,292,0.0,0.0,76,0.00,,---,0.00,VWS V13.01,2013-01-03 00:07:00,
2013-01-02 16:12:00,46.0,38.5,29.86,WNW,292,2.0,2.0,75,0.00,,---,0.00,VWS V13.01,2013-01-03 00:12:00,
2013-01-02 16:17:00,46.0,38.9,29.86,WNW,292,0.0,0.0,76,0.00,,---,0.00,VWS V13.01,2013-01-03 00:17:00,
2013-01-02 16:22:00,46.0,38.5,29.85,WNW,292,0.0,0.0,75,0.00,,---,0.00,VWS V13.01,2013-01-03 00:22:00,
2013-01-02 16:27:00,45.0,37.9,29.85,West,270,0.0,3.0,76,0.00,,---,0.00,VWS V13.01,2013-01-03 00:27:00,
2013-01-02 16:32:00,46.0,38.5,29.85,West,270,0.0,0.0,75,0.00,,---,0.00,VWS V13.01,2013-01-03 00:32:00,
2013-01-02 16:37:00,45.0,37.9,29.85,West,270,0.0,0.0,76,0.00,,---,0.00,VWS V13.01,2013-01-03 00:37:00,
2013-01-02 16:42:00,45.0,37.6,29.84,WNW,292,1.0,1.0,75,0.00,,---,0.00,VWS V13.01,2013-01-03 00:42:00,
2013-01-02 16:47:00,45.0,37.6,29.84,WNW,292,0.0,0.0,75,0.00,,---,0.00,VWS V13.01,2013-01-03 00:47:00,
2013-01-02 16:52:00,45.0,37.6,29.84,WNW,292,0.0,0.0,75,0.00,,---,0.00,VWS V13.01,2013-01-03 00:52:00,
2013-01-02 16:57:00,44.0,36.6,29.84,WNW,292,0.0,0.0,75,0.00,,---,0.00,VWS V13.01,2013-01-03 00:57:00,
2013-01-02 17:02:00,44.0,36.6,29.85,WNW,292,0.0,0.0,75,0.00,,---,0.00,VWS V13.01,2013-01-03 01:02:00,
2013-01-02 17:07:00,44.0,36.6,29.85,WNW,292,0.0,0.0,75,0.00,,---,0.00,VWS V13.01,2013-01-03 01:07:00,
2013-01-02 17:12:00,44.0,36.6,29.86,WNW,292,0.0,2.0,75,0.00,,---,0.00,VWS V13.01,2013-01-03 01:12:00,
2013-01-02 17:17:00,44.0,36.6,29.86,WNW,292,0.0,0.0,75,0.00,,---,0.00,VWS V13.01,2013-01-03 01:17:00,
2013-01-02 17:22:00,44.0,36.6,29.86,WNW,292,0.0,0.0,75,0.00,,---,0.00,VWS V13.01,2013-01-03 01:22:00,
2013-01-02 17:27:00,43.0,35.6,29.86,WNW,292,0.0,0.0,75,0.00,,---,0.00,VWS V13.01,2013-01-03 01:27:00,
2013-01-02 17:32:00,43.0,35.6,29.85,WNW,292,0.0,0.0,75,0.00,,---,0.00,VWS V13.01,2013-01-03 01:32:00,
2013-01-02 17:37:00,42.0,34.3,29.85,WNW,292,0.0,0.0,74,0.00,,---,0.00,VWS V13.01,2013-01-03 01:37:00,
2013-01-02 17:42:00,42.0,34.3,29.84,WNW,292,0.0,0.0,74,0.00,,---,0.00,VWS V13.01,2013-01-03 01:42:00,
2013-01-02 17:47:00,42.0,34.3,29.84,WNW,292,0.0,0.0,74,0.00,,---,0.00,VWS V13.01,2013-01-03 01:47:00,
2013-01-02 17:52:00,42.0,34.3,29.85,WNW,292,0.0,0.0,74,0.00,,---,0.00,VWS V13.01,2013-01-03 01:52:00,
2013-01-02 17:57:00,42.0,34.3,29.85,WNW,292,0.0,0.0,74,0.00,,---,0.00,VWS V13.01,2013-01-03 01:57:00,
2013-01-02 18:02:00,43.0,35.6,29.84,WNW,292,0.0,0.0,75,0.00,,---,0.00,VWS V13.01,2013-01-03 02:02:00,
2013-01-02 18:07:00,42.0,34.3,29.84,WNW,292,0.0,0.0,74,0.00,,---,0.00,VWS V13.01,2013-01-03 02:07:00,
2013-01-02 18:12:00,43.0,35.6,29.84,WNW,292,0.0,0.0,75,0.00,,---,0.00,VWS V13.01,2013-01-03 02:12:00,
2013-01-02 18:17:00,42.0,34.3,29.84,WNW,292,0.0,0.0,74,0.00,,---,0.00,VWS V13.01,2013-01-03 02:17:00,
2013-01-02 18:22:00,42.0,34.3,29.85,WNW,292,0.0,0.0,74,0.00,,---,0.00,VWS V13.01,2013-01-03 02:22:00,
2013-01-02 18:27:00,42.0,34.3,29.85,WNW,292,0.0,0.0,74,0.00,,---,0.00,VWS V13.01,2013-01-03 02:27:00,
2013-01-02 18:32:00,42.0,34.3,29.85,WNW,292,0.0,0.0,74,0.00,,---,0.00,VWS V13.01,2013-01-03 02:32:00,
2013-01-02 18:37:00,42.0,34.3,29.85,WNW,292,0.0,0.0,74,0.00,,---,0.00,VWS V13.01,2013-01-03 02:37:00,
2013-01-02 18:42:00,42.0,34.3,29.85,WNW,292,0.0,0.0,74,0.00,,---,0.00,VWS V13.01,2013-01-03 02:42:00,
2013-01-02 18:47:00,42.0,34.3,29.85,WNW,292,0.0,0.0,74,0.00,,---,0.00,VWS V13.01,2013-01-03 02:47:00,
2013-01-02 18:52:00,43.0,35.6,29.84,WNW,292,0.0,0.0,75,0.00,,---,0.00,VWS V13.01,2013-01-03 02:52:00,
2013-01-02 18:57:00,43.0,35.6,29.84,WNW,292,0.0,0.0,75,0.00,,---,0.00,VWS V13.01,2013-01-03 02:57:00,
2013-01-02 19:02:00,43.0,35.6,29.85,WNW,292,0.0,0.0,75,0.00,,---,0.00,VWS V13.01,2013-01-03 03:02:00,
2013-01-02 19:07:00,42.0,34.3,29.85,WNW,292,0.0,0.0,74,0.00,,---,0.00,VWS V13.01,2013-01-03 03:07:00,
2013-01-02 19:12:00,43.0,35.6,29.85,WNW,292,0.0,0.0,75,0.00,,---,0.00,VWS V13.01,2013-01-03 03:12:00,
2013-01-02 19:17:00,43.0,35.6,29.85,SSW,202,0.0,0.0,75,0.00,,---,0.00,VWS V13.01,2013-01-03 03:17:00,
2013-01-02 19:22:00,43.0,35.6,29.85,SSW,202,0.0,0.0,75,0.00,,---,0.00,VWS V13.01,2013-01-03 03:22:00,
2013-01-02 19:27:00,43.0,35.6,29.85,SSW,202,0.0,0.0,75,0.00,,---,0.00,VWS V13.01,2013-01-03 03:27:00,
2013-01-02 19:32:00,43.0,35.6,29.84,SSW,202,0.0,0.0,75,0.00,,---,0.00,VWS V13.01,2013-01-03 03:32:00,
2013-01-02 19:37:00,42.0,34.3,29.84,SSW,202,0.0,0.0,74,0.00,,---,0.00,VWS V13.01,2013-01-03 03:37:00,
2013-01-02 19:43:00,42.0,34.3,29.84,SSW,202,0.0,0.0,74,0.00,,---,0.00,VWS V13.01,2013-01-03 03:43:00,
2013-01-02 19:48:00,41.0,33.4,29.84,SSE,157,0.0,0.0,74,0.00,,---,0.00,VWS V13.01,2013-01-03 03:48:00,
2013-01-02 19:53:00,41.0,33.4,29.85,SSE,157,0.0,0.0,74,0.00,,---,0.00,VWS V13.01,2013-01-03 03:53:00,
2013-01-02 19:58:00,41.0,33.4,29.85,ESE,112,2.0,3.0,74,0.00,,---,0.00,VWS V13.01,2013-01-03 03:58:00,
2013-01-02 20:03:00,41.0,33.4,29.84,ESE,112,2.0,4.0,74,0.00,,---,0.00,VWS V13.01,2013-01-03 04:03:00,
2013-01-02 20:08:00,42.0,34.3,29.84,ESE,112,5.0,5.0,74,0.00,,---,0.00,VWS V13.01,2013-01-03 04:08:00,
2013-01-02 20:13:00,42.0,34.3,29.85,ESE,112,5.0,5.0,74,0.00,,---,0.00,VWS V13.01,2013-01-03 04:13:00,
2013-01-02 20:18:00,42.0,34.3,29.85,SE,135,2.0,2.0,74,0.00,,---,0.00,VWS V13.01,2013-01-03 04:18:00,
2013-01-02 20:23:00,42.0,34.3,29.85,ESE,112,5.0,6.0,74,0.00,,---,0.00,VWS V13.01,2013-01-03 04:23:00,
2013-01-02 20:28:00,42.0,34.3,29.85,ESE,112,0.0,0.0,74,0.00,,---,0.00,VWS V13.01,2013-01-03 04:28:00,
2013-01-02 20:33:00,42.0,34.3,29.85,ESE,112,0.0,0.0,74,0.00,,---,0.00,VWS V13.01,2013-01-03 04:33:00,
2013-01-02 20:38:00,41.0,33.4,29.85,ESE,112,0.0,0.0,74,0.00,,---,0.00,VWS V13.01,2013-01-03 04:38:00,
2013-01-02 20:43:00,40.0,32.4,29.86,West,270,0.0,1.0,74,0.00,,---,0.00,VWS V13.01,2013-01-03 04:43:00,
2013-01-02 20:48:00,39.0,31.4,29.86,West,270,0.0,0.0,74,0.00,,---,0.00,VWS V13.01,2013-01-03 04:48:00,
2013-01-02 20:53:00,38.0,30.5,29.87,West,270,0.0,0.0,74,0.00,,---,0.00,VWS V13.01,2013-01-03 04:53:00,
2013-01-02 20:58:00,38.0,30.5,29.87,West,270,0.0,0.0,74,0.00,,---,0.00,VWS V13.01,2013-01-03 04:58:00,
2013-01-02 21:02:00,38.0,30.5,29.88,West,270,0.0,0.0,74,0.00,,---,0.00,VWS V13.01,2013-01-03 05:02:00,
2013-01-02 21:03:00,38.0,30.5,29.88,West,270,0.0,0.0,74,0.00,,---,0.00,VWS V13.01,2013-01-03 05:03:00,
2013-01-02 21:08:00,38.0,30.5,29.88,West,270,0.0,0.0,74,0.00,,---,0.00,VWS V13.01,2013-01-03 05:08:00,
2013-01-02 21:13:00,38.0,30.5,29.88,West,270,0.0,0.0,74,0.00,,---,0.00,VWS V13.01,2013-01-03 05:13:00,
2013-01-02 21:18:00,39.0,31.4,29.88,South,180,0.0,0.0,74,0.00,,---,0.00,VWS V13.01,2013-01-03 05:18:00,
2013-01-02 21:23:00,39.0,31.4,29.87,SW,225,0.0,0.0,74,0.00,,---,0.00,VWS V13.01,2013-01-03 05:23:00,
2013-01-02 21:28:00,39.0,31.4,29.87,SW,225,0.0,0.0,74,0.00,,---,0.00,VWS V13.01,2013-01-03 05:28:00,
2013-01-02 21:33:00,38.0,30.5,29.88,SW,225,0.0,0.0,74,0.00,,---,0.00,VWS V13.01,2013-01-03 05:33:00,
2013-01-02 21:38:00,37.0,29.8,29.88,West,270,0.0,0.0,75,0.00,,---,0.00,VWS V13.01,2013-01-03 05:38:00,
2013-01-02 21:43:00,37.0,29.8,29.89,West,270,0.0,0.0,75,0.00,,---,0.00,VWS V13.01,2013-01-03 05:43:00,
2013-01-02 21:48:00,37.0,29.8,29.89,West,270,0.0,0.0,75,0.00,,---,0.00,VWS V13.01,2013-01-03 05:48:00,
2013-01-02 21:53:00,37.0,29.8,29.90,West,270,0.0,0.0,75,0.00,,---,0.00,VWS V13.01,2013-01-03 05:53:00,
2013-01-02 21:58:00,37.0,29.8,29.90,West,270,0.0,0.0,75,0.00,,---,0.00,VWS V13.01,2013-01-03 05:58:00,
2013-01-02 22:03:00,37.0,29.8,29.89,West,270,0.0,0.0,75,0.00,,---,0.00,VWS V13.01,2013-01-03 06:03:00,
2013-01-02 22:08:00,37.0,29.8,29.89,West,270,0.0,0.0,75,0.00,,---,0.00,VWS V13.01,2013-01-03 06:08:00,
2013-01-02 22:13:00,37.0,29.8,29.88,South,180,0.0,0.0,75,0.00,,---,0.00,VWS V13.01,2013-01-03 06:13:00,
2013-01-02 22:18:00,38.0,30.5,29.88,SSE,157,0.0,0.0,74,0.00,,---,0.00,VWS V13.01,2013-01-03 06:18:00,
2013-01-02 22:23:00,38.0,30.5,29.89,SE,135,0.0,0.0,74,0.00,,---,0.00,VWS V13.01,2013-01-03 06:23:00,
2013-01-02 22:28:00,38.0,30.5,29.89,SE,135,0.0,1.0,74,0.00,,---,0.00,VWS V13.01,2013-01-03 06:28:00,
2013-01-02 22:33:00,38.0,30.5,29.89,ESE,112,0.0,2.0,74,0.00,,---,0.00,VWS V13.01,2013-01-03 06:33:00,
2013-01-02 22:38:00,38.0,30.5,29.89,SE,135,0.0,0.0,74,0.00,,---,0.00,VWS V13.01,2013-01-03 06:38:00,
2013-01-02 22:43:00,38.0,30.5,29.89,SE,135,0.0,0.0,74,0.00,,---,0.00,VWS V13.01,2013-01-03 06:43:00,
2013-01-02 22:48:00,38.0,30.5,29.89,SE,135,2.0,3.0,74,0.00,,---,0.00,VWS V13.01,2013-01-03 06:48:00,
2013-01-02 22:53:00,38.0,30.5,29.90,ESE,112,1.0,4.0,74,0.00,,---,0.00,VWS V13.01,2013-01-03 06:53:00,
2013-01-02 22:58:00,39.0,31.4,29.90,ESE,112,4.0,5.0,74,0.00,,---,0.00,VWS V13.01,2013-01-03 06:58:00,
2013-01-02 23:03:00,39.0,31.4,29.89,ESE,112,2.0,3.0,74,0.00,,---,0.00,VWS V13.01,2013-01-03 07:03:00,
2013-01-02 23:08:00,39.0,31.4,29.89,ESE,112,0.0,1.0,74,0.00,,---,0.00,VWS V13.01,2013-01-03 07:08:00,
2013-01-02 23:13:00,39.0,31.4,29.89,ESE,112,0.0,0.0,74,0.00,,---,0.00,VWS V13.01,2013-01-03 07:13:00,
2013-01-02 23:18:00,38.0,30.5,29.89,ESE,112,0.0,0.0,74,0.00,,---,0.00,VWS V13.01,2013-01-03 07:18:00,
2013-01-02 23:23:00,37.0,29.8,29.90,ESE,112,0.0,0.0,75,0.00,,---,0.00,VWS V13.01,2013-01-03 07:23:00,
2013-01-02 23:28:00,36.0,28.9,29.90,ESE,112,0.0,0.0,75,0.00,,---,0.00,VWS V13.01,2013-01-03 07:28:00,
2013-01-02 23:33:00,36.0,28.9,29.89,ESE,112,0.0,1.0,75,0.00,,---,0.00,VWS V13.01,2013-01-03 07:33:00,
2013-01-02 23:38:00,37.0,29.8,29.89,ESE,112,2.0,3.0,75,0.00,,---,0.00,VWS V13.01,2013-01-03 07:38:00,
2013-01-02 23:43:00,38.0,30.5,29.89,ESE,112,3.0,3.0,74,0.00,,---,0.00,VWS V13.01,2013-01-03 07:43:00,
2013-01-02 23:48:00,39.0,31.4,29.89,SE,135,0.0,1.0,74,0.00,,---,0.00,VWS V13.01,2013-01-03 07:48:00,
2013-01-02 23:53:00,39.0,31.4,29.88,ESE,112,4.0,4.0,74,0.00,,---,0.00,VWS V13.01,2013-01-03 07:53:00,
2013-01-02 23:58:00,40.0,32.4,29.88,ESE,112,1.0,4.0,74,0.00,,---,0.00,VWS V13.01,2013-01-03 07:58:00,